Location: Wells
(51.2093°N, 2.6446°W)
Time: 08:09:56
(UTC+01:00)

SO-50 - Pass Details

Date: 21 March 2026
Orbit: 567 x 673 km, 64.6° (Epoch: 17 April)

Event Time Altitude Azimuth Distance (km) Brightness Sun altitude
Rises 23:26:13 0° 318° (NW) 3,030 ? -37.1°
Reaches altitude 10° 23:28:39 10° 325° (NW) 2,115 ? -37.2°
Enters shadow 23:30:03 18° 332° (NNW) 1,621 ? -37.3°
